Time,TemperatureF,DewpointF,PressureIn,WindDirection,WindDirectionDegrees,WindSpeedMPH,WindSpeedGustMPH,Humidity,HourlyPrecipIn,Conditions,Clouds,dailyrainin,SoftwareType,DateUTC
2013-01-02 00:00:00,23.5,12.4,30.03,WNW,291,4.0,10.0,62,0.00,,---,0.01,VWS V14.01,2013-01-02 05:00:00,
2013-01-02 00:02:00,23.4,12.3,30.03,NNE,26,4.0,8.0,62,0.00,,---,0.00,VWS V14.01,2013-01-02 05:02:00,
2013-01-02 00:07:00,23.4,12.7,30.03,West,264,0.0,8.0,63,0.00,,---,0.00,VWS V14.01,2013-01-02 05:07:00,
2013-01-02 00:12:00,23.3,12.2,30.03,NW,307,1.0,8.0,62,0.00,,---,0.00,VWS V14.01,2013-01-02 05:12:00,
2013-01-02 00:17:00,23.2,12.5,30.03,West,269,3.0,9.0,63,0.00,,---,0.00,VWS V14.01,2013-01-02 05:17:00,
2013-01-02 00:22:00,23.1,12.4,30.02,WNW,290,3.0,9.0,63,0.00,,---,0.00,VWS V14.01,2013-01-02 05:22:00,
2013-01-02 00:27:00,23.0,12.3,30.03,West,266,3.0,9.0,63,0.00,,---,0.00,VWS V14.01,2013-01-02 05:27:00,
2013-01-02 00:30:00,23.0,12.3,30.03,WNW,297,3.0,11.0,63,0.00,,---,0.00,VWS V14.01,2013-01-02 05:30:00,
2013-01-02 00:32:00,22.9,12.2,30.02,WSW,240,6.0,6.0,63,0.00,,---,0.00,VWS V14.01,2013-01-02 05:32:00,
2013-01-02 00:37:00,22.8,12.1,30.03,West,267,10.0,11.0,63,0.00,,---,0.00,VWS V14.01,2013-01-02 05:37:00,
2013-01-02 00:42:00,22.8,12.5,30.03,West,281,5.0,12.0,64,0.00,,---,0.00,VWS V14.01,2013-01-02 05:42:00,
2013-01-02 00:47:00,22.7,12.4,30.02,NW,311,5.0,12.0,64,0.00,,---,0.00,VWS V14.01,2013-01-02 05:47:00,
2013-01-02 00:52:00,22.6,12.3,30.02,WNW,282,5.0,14.0,64,0.00,,---,0.00,VWS V14.01,2013-01-02 05:52:00,
2013-01-02 00:57:00,22.6,12.6,30.02,WNW,292,2.0,14.0,65,0.00,,---,0.00,VWS V14.01,2013-01-02 05:57:00,
2013-01-02 01:00:00,22.5,12.2,30.02,WNW,288,4.0,14.0,64,0.00,,---,0.00,VWS V14.01,2013-01-02 06:00:00,
2013-01-02 01:02:00,22.5,12.2,30.02,NW,318,3.0,5.0,64,0.00,,---,0.00,VWS V14.01,2013-01-02 06:02:00,
2013-01-02 01:07:00,22.5,12.5,30.02,WNW,291,4.0,9.0,65,0.00,,---,0.00,VWS V14.01,2013-01-02 06:07:00,
2013-01-02 01:12:00,22.5,12.2,30.02,NE,34,1.0,13.0,64,0.00,,---,0.00,VWS V14.01,2013-01-02 06:12:00,
2013-01-02 01:17:00,22.5,12.2,30.02,NE,35,3.0,13.0,64,0.00,,---,0.00,VWS V14.01,2013-01-02 06:17:00,
2013-01-02 01:22:00,22.4,12.1,30.03,SSE,160,4.0,13.0,64,0.00,,---,0.00,VWS V14.01,2013-01-02 06:22:00,
2013-01-02 01:27:00,22.4,11.7,30.03,NNW,327,4.0,13.0,63,0.00,,---,0.00,VWS V14.01,2013-01-02 06:27:00,
2013-01-02 01:30:00,22.4,12.1,30.03,SW,215,6.0,13.0,64,0.00,,---,0.00,VWS V14.01,2013-01-02 06:30:00,
2013-01-02 01:32:00,22.4,12.1,30.03,NNW,345,5.0,10.0,64,0.00,,---,0.00,VWS V14.01,2013-01-02 06:32:00,
2013-01-02 01:37:00,22.3,11.6,30.03,West,280,1.0,10.0,63,0.00,,---,0.00,VWS V14.01,2013-01-02 06:37:00,
2013-01-02 01:42:00,22.2,11.5,30.03,NNW,343,2.0,10.0,63,0.00,,---,0.00,VWS V14.01,2013-01-02 06:42:00,
2013-01-02 01:47:00,22.2,11.5,30.03,NW,312,2.0,10.0,63,0.00,,---,0.00,VWS V14.01,2013-01-02 06:47:00,
2013-01-02 01:52:00,22.1,11.1,30.03,NNE,16,3.0,10.0,62,0.00,,---,0.00,VWS V14.01,2013-01-02 06:52:00,
2013-01-02 01:57:00,22.0,11.4,30.03,WNW,282,7.0,10.0,63,0.00,,---,0.00,VWS V14.01,2013-01-02 06:57:00,
2013-01-02 02:00:00,22.0,11.4,30.04,NNE,20,0.0,10.0,63,0.00,,---,0.00,VWS V14.01,2013-01-02 07:00:00,
2013-01-02 02:02:00,22.0,11.4,30.04,ESE,122,0.0,1.0,63,0.00,,---,0.00,VWS V14.01,2013-01-02 07:02:00,
2013-01-02 02:07:00,21.9,11.2,30.03,SSE,160,1.0,5.0,63,0.00,,---,0.00,VWS V14.01,2013-01-02 07:07:00,
2013-01-02 02:12:00,21.8,10.8,30.03,WNW,289,5.0,6.0,62,0.00,,---,0.00,VWS V14.01,2013-01-02 07:12:00,
2013-01-02 02:17:00,21.7,11.1,30.03,West,264,3.0,7.0,63,0.00,,---,0.00,VWS V14.01,2013-01-02 07:17:00,
2013-01-02 02:22:00,21.6,11.0,30.03,NE,56,1.0,7.0,63,0.00,,---,0.00,VWS V14.01,2013-01-02 07:22:00,
2013-01-02 02:27:00,21.5,11.2,30.03,WNW,282,1.0,7.0,64,0.00,,---,0.00,VWS V14.01,2013-01-02 07:27:00,
2013-01-02 02:30:00,21.4,11.1,30.03,West,274,2.0,7.0,64,0.00,,---,0.00,VWS V14.01,2013-01-02 07:30:00,
2013-01-02 02:32:00,21.4,11.1,30.03,North,356,0.0,3.0,64,0.00,,---,0.00,VWS V14.01,2013-01-02 07:32:00,
2013-01-02 02:37:00,21.3,11.0,30.03,WSW,240,6.0,6.0,64,0.00,,---,0.00,VWS V14.01,2013-01-02 07:37:00,
2013-01-02 02:42:00,21.2,10.9,30.03,ENE,68,2.0,7.0,64,0.00,,---,0.00,VWS V14.01,2013-01-02 07:42:00,
2013-01-02 02:47:00,21.2,10.9,30.03,NNE,25,2.0,7.0,64,0.00,,---,0.00,VWS V14.01,2013-01-02 07:47:00,
2013-01-02 02:52:00,21.2,11.3,30.03,NW,322,1.0,7.0,65,0.00,,---,0.00,VWS V14.01,2013-01-02 07:52:00,
2013-01-02 02:57:00,21.2,11.3,30.03,SSW,193,1.0,7.0,65,0.00,,---,0.00,VWS V14.01,2013-01-02 07:57:00,
2013-01-02 03:00:00,21.2,11.3,30.03,West,262,6.0,7.0,65,0.00,,---,0.00,VWS V14.01,2013-01-02 08:00:00,
2013-01-02 03:02:00,21.1,10.8,30.03,WNW,292,3.0,6.0,64,0.00,,---,0.00,VWS V14.01,2013-01-02 08:02:00,
2013-01-02 03:07:00,21.1,11.2,30.02,NW,304,1.0,6.0,65,0.00,,---,0.00,VWS V14.01,2013-01-02 08:07:00,
2013-01-02 03:12:00,21.1,11.2,30.03,WNW,285,2.0,6.0,65,0.00,,---,0.00,VWS V14.01,2013-01-02 08:12:00,
2013-01-02 03:17:00,21.1,10.8,30.03,WNW,290,1.0,9.0,64,0.00,,---,0.00,VWS V14.01,2013-01-02 08:17:00,
2013-01-02 03:22:00,21.1,11.2,30.03,WSW,242,2.0,9.0,65,0.00,,---,0.00,VWS V14.01,2013-01-02 08:22:00,
2013-01-02 03:27:00,21.1,11.2,30.03,NNW,331,0.0,9.0,65,0.00,,---,0.00,VWS V14.01,2013-01-02 08:27:00,
2013-01-02 03:30:00,21.1,11.2,30.03,SE,130,2.0,9.0,65,0.00,,---,0.00,VWS V14.01,2013-01-02 08:30:00,
2013-01-02 03:32:00,21.0,11.1,30.03,ESE,123,0.0,2.0,65,0.00,,---,0.00,VWS V14.01,2013-01-02 08:32:00,
2013-01-02 03:37:00,20.9,11.0,30.03,NNE,32,3.0,3.0,65,0.00,,---,0.00,VWS V14.01,2013-01-02 08:37:00,
2013-01-02 03:42:00,21.0,11.4,30.04,NE,36,1.0,3.0,66,0.00,,---,0.00,VWS V14.01,2013-01-02 08:42:00,
2013-01-02 03:47:00,20.9,11.3,30.04,NW,305,4.0,4.0,66,0.00,,---,0.00,VWS V14.01,2013-01-02 08:47:00,
2013-01-02 03:52:00,20.9,11.0,30.04,WNW,293,0.0,5.0,65,0.00,,---,0.00,VWS V14.01,2013-01-02 08:52:00,
2013-01-02 03:57:00,20.9,11.3,30.04,WNW,292,0.0,5.0,66,0.00,,---,0.00,VWS V14.01,2013-01-02 08:57:00,
2013-01-02 04:00:00,20.8,11.2,30.04,WNW,282,1.0,5.0,66,0.00,,---,0.00,VWS V14.01,2013-01-02 09:00:00,
2013-01-02 04:02:00,20.8,10.9,30.04,West,269,1.0,2.0,65,0.00,,---,0.00,VWS V14.01,2013-01-02 09:02:00,
2013-01-02 04:07:00,20.8,10.9,30.04,West,273,1.0,2.0,65,0.00,,---,0.00,VWS V14.01,2013-01-02 09:07:00,
2013-01-02 04:12:00,20.8,10.9,30.04,West,270,2.0,3.0,65,0.00,,---,0.00,VWS V14.01,2013-01-02 09:12:00,
2013-01-02 04:17:00,20.8,10.9,30.04,NW,305,3.0,4.0,65,0.00,,---,0.00,VWS V14.01,2013-01-02 09:17:00,
2013-01-02 04:22:00,20.8,10.9,30.03,NNW,335,1.0,4.0,65,0.00,,---,0.00,VWS V14.01,2013-01-02 09:22:00,
2013-01-02 04:27:00,20.8,10.9,30.03,NNE,23,0.0,4.0,65,0.00,,---,0.00,VWS V14.01,2013-01-02 09:27:00,
2013-01-02 04:30:00,20.8,11.2,30.04,NE,34,0.0,4.0,66,0.00,,---,0.00,VWS V14.01,2013-01-02 09:30:00,
2013-01-02 04:32:00,20.8,11.2,30.03,NE,34,0.0,0.0,66,0.00,,---,0.00,VWS V14.01,2013-01-02 09:32:00,
2013-01-02 04:37:00,20.7,10.8,30.04,NW,304,0.0,1.0,65,0.00,,---,0.00,VWS V14.01,2013-01-02 09:37:00,
2013-01-02 04:42:00,20.7,10.5,30.04,NE,36,0.0,2.0,64,0.00,,---,0.00,VWS V14.01,2013-01-02 09:42:00,
2013-01-02 04:47:00,20.6,10.7,30.04,NE,53,1.0,2.0,65,0.00,,---,0.00,VWS V14.01,2013-01-02 09:47:00,
2013-01-02 04:52:00,20.5,11.0,30.04,ENE,66,0.0,2.0,66,0.00,,---,0.00,VWS V14.01,2013-01-02 09:52:00,
2013-01-02 04:57:00,20.4,11.2,30.04,ENE,67,1.0,2.0,67,0.00,,---,0.00,VWS V14.01,2013-01-02 09:57:00,
2013-01-02 05:00:00,20.4,10.5,30.03,NW,315,1.0,2.0,65,0.00,,---,0.00,VWS V14.01,2013-01-02 10:00:00,
2013-01-02 05:02:00,20.5,10.6,30.03,NE,38,2.0,3.0,65,0.00,,---,0.00,VWS V14.01,2013-01-02 10:02:00,
2013-01-02 05:07:00,20.6,11.1,30.03,NNW,332,0.0,4.0,66,0.00,,---,0.00,VWS V14.01,2013-01-02 10:07:00,
2013-01-02 05:12:00,20.6,10.7,30.03,NW,321,0.0,4.0,65,0.00,,---,0.00,VWS V14.01,2013-01-02 10:12:00,
2013-01-02 05:16:00,20.6,11.4,30.03,NE,48,0.0,4.0,67,0.00,,---,0.00,VWS V14.01,2013-01-02 10:16:00,
2013-01-02 05:21:00,20.5,10.6,30.03,SE,138,1.0,4.0,65,0.00,,---,0.00,VWS V14.01,2013-01-02 10:21:00,
2013-01-02 05:26:00,20.3,10.8,30.03,NE,46,0.0,4.0,66,0.00,,---,0.00,VWS V14.01,2013-01-02 10:26:00,
2013-01-02 05:30:00,20.3,10.8,30.03,NE,36,2.0,4.0,66,0.00,,---,0.00,VWS V14.01,2013-01-02 10:30:00,
2013-01-02 05:31:00,20.4,10.9,30.03,NE,53,2.0,3.0,66,0.00,,---,0.00,VWS V14.01,2013-01-02 10:31:00,
2013-01-02 05:36:00,20.6,10.7,30.02,NE,55,1.0,3.0,65,0.00,,---,0.00,VWS V14.01,2013-01-02 10:36:00,
2013-01-02 05:41:00,20.6,11.4,30.02,NE,34,1.0,3.0,67,0.00,,---,0.00,VWS V14.01,2013-01-02 10:41:00,
2013-01-02 05:46:00,20.6,11.1,30.02,NE,38,0.0,3.0,66,0.00,,---,0.00,VWS V14.01,2013-01-02 10:46:00,
2013-01-02 05:51:00,20.5,11.0,30.02,ENE,76,1.0,3.0,66,0.00,,---,0.00,VWS V14.01,2013-01-02 10:51:00,
2013-01-02 05:56:00,20.3,10.8,30.03,SSE,150,0.0,3.0,66,0.00,,---,0.00,VWS V14.01,2013-01-02 10:56:00,
2013-01-02 06:00:00,20.2,10.7,30.03,West,266,0.0,3.0,66,0.00,,---,0.00,VWS V14.01,2013-01-02 11:00:00,
2013-01-02 06:01:00,20.2,10.7,30.03,West,265,0.0,1.0,66,0.00,,---,0.00,VWS V14.01,2013-01-02 11:01:00,
2013-01-02 06:06:00,20.2,11.0,30.02,East,100,0.0,1.0,67,0.00,,---,0.00,VWS V14.01,2013-01-02 11:06:00,
2013-01-02 06:11:00,20.0,10.5,30.02,SE,143,1.0,1.0,66,0.00,,---,0.00,VWS V14.01,2013-01-02 11:11:00,
2013-01-02 06:16:00,19.9,10.7,30.02,SE,145,0.0,1.0,67,0.00,,---,0.00,VWS V14.01,2013-01-02 11:16:00,
2013-01-02 06:21:00,20.0,10.8,30.03,West,262,2.0,2.0,67,0.00,,---,0.00,VWS V14.01,2013-01-02 11:21:00,
2013-01-02 06:26:00,20.4,10.9,30.03,WNW,285,0.0,3.0,66,0.00,,---,0.00,VWS V14.01,2013-01-02 11:26:00,
2013-01-02 06:30:00,20.3,10.8,30.03,ESE,115,0.0,3.0,66,0.00,,---,0.00,VWS V14.01,2013-01-02 11:30:00,
2013-01-02 06:31:00,20.3,10.8,30.03,WSW,243,0.0,1.0,66,0.00,,---,0.00,VWS V14.01,2013-01-02 11:31:00,
2013-01-02 06:36:00,20.4,11.5,30.03,WSW,253,1.0,5.0,68,0.00,,---,0.00,VWS V14.01,2013-01-02 11:36:00,
2013-01-02 06:41:00,20.6,11.1,30.04,WSW,249,2.0,5.0,66,0.00,,---,0.00,VWS V14.01,2013-01-02 11:41:00,
2013-01-02 06:46:00,20.9,11.0,30.04,West,271,0.0,5.0,65,0.00,,---,0.00,VWS V14.01,2013-01-02 11:46:00,
2013-01-02 06:51:00,20.8,10.9,30.04,West,271,0.0,5.0,65,0.00,,---,0.00,VWS V14.01,2013-01-02 11:51:00,
2013-01-02 06:56:00,20.6,11.1,30.04,SW,235,1.0,5.0,66,0.00,,---,0.00,VWS V14.01,2013-01-02 11:56:00,
2013-01-02 07:00:00,20.3,10.8,30.04,SE,134,0.0,5.0,66,0.00,,---,0.00,VWS V14.01,2013-01-02 12:00:00,
2013-01-02 07:01:00,20.3,10.8,30.04,SE,134,0.0,0.0,66,0.00,,---,0.00,VWS V14.01,2013-01-02 12:01:00,
2013-01-02 07:06:00,20.2,10.7,30.04,WSW,238,0.0,1.0,66,0.00,,---,0.00,VWS V14.01,2013-01-02 12:06:00,
2013-01-02 07:11:00,20.1,11.2,30.04,SE,142,0.0,1.0,68,0.00,,---,0.00,VWS V14.01,2013-01-02 12:11:00,
2013-01-02 07:16:00,20.0,10.8,30.04,SSE,148,1.0,1.0,67,0.00,,---,0.00,VWS V14.01,2013-01-02 12:16:00,
2013-01-02 07:21:00,20.0,10.8,30.04,SE,124,0.0,2.0,67,0.00,,---,0.00,VWS V14.01,2013-01-02 12:21:00,
2013-01-02 07:26:00,19.8,11.3,30.05,ESE,120,1.0,2.0,69,0.00,,---,0.00,VWS V14.01,2013-01-02 12:26:00,
2013-01-02 07:30:00,19.8,11.0,30.05,ESE,118,0.0,2.0,68,0.00,,---,0.00,VWS V14.01,2013-01-02 12:30:00,
2013-01-02 07:31:00,19.8,11.0,30.05,ESE,118,0.0,1.0,68,0.00,,---,0.00,VWS V14.01,2013-01-02 12:31:00,
2013-01-02 07:36:00,19.9,10.7,30.05,ESE,115,0.0,3.0,67,0.00,,---,0.00,VWS V14.01,2013-01-02 12:36:00,
2013-01-02 07:41:00,20.0,10.5,30.05,ESE,115,0.0,3.0,66,0.00,,---,0.00,VWS V14.01,2013-01-02 12:41:00,
2013-01-02 07:46:00,20.0,10.5,30.05,ESE,115,0.0,3.0,66,0.00,,---,0.00,VWS V14.01,2013-01-02 12:46:00,
2013-01-02 07:51:00,20.0,10.5,30.05,West,280,1.0,3.0,66,0.00,,---,0.00,VWS V14.01,2013-01-02 12:51:00,
2013-01-02 07:56:00,20.3,10.8,30.06,West,273,0.0,3.0,66,0.00,,---,0.00,VWS V14.01,2013-01-02 12:56:00,
2013-01-02 08:00:00,20.4,10.5,30.06,WSW,256,0.0,3.0,65,0.00,,---,0.00,VWS V14.01,2013-01-02 13:00:00,
2013-01-02 08:01:00,20.5,10.6,30.05,West,270,1.0,1.0,65,0.00,,---,0.00,VWS V14.01,2013-01-02 13:01:00,
2013-01-02 08:06:00,20.6,10.7,30.06,WSW,253,0.0,4.0,65,0.00,,---,0.00,VWS V14.01,2013-01-02 13:06:00,
2013-01-02 08:11:00,20.8,10.6,30.06,SW,228,0.0,4.0,64,0.00,,---,0.00,VWS V14.01,2013-01-02 13:11:00,
2013-01-02 08:16:00,20.9,10.6,30.06,West,278,1.0,4.0,64,0.00,,---,0.00,VWS V14.01,2013-01-02 13:16:00,
2013-01-02 08:21:00,20.9,11.0,30.06,WSW,257,0.0,4.0,65,0.00,,---,0.00,VWS V14.01,2013-01-02 13:21:00,
2013-01-02 08:26:00,21.0,11.1,30.07,SW,215,1.0,4.0,65,0.00,,---,0.00,VWS V14.01,2013-01-02 13:26:00,
2013-01-02 08:30:00,21.1,10.9,30.07,WSW,257,1.0,4.0,64,0.00,,---,0.00,VWS V14.01,2013-01-02 13:30:00,
2013-01-02 08:31:00,21.1,10.8,30.07,West,269,0.0,2.0,64,0.00,,---,0.00,VWS V14.01,2013-01-02 13:31:00,
2013-01-02 08:36:00,21.2,10.9,30.07,West,269,1.0,2.0,64,0.00,,---,0.00,VWS V14.01,2013-01-02 13:36:00,
2013-01-02 08:41:00,21.4,11.5,30.07,West,260,0.0,2.0,65,0.00,,---,0.00,VWS V14.01,2013-01-02 13:41:00,
2013-01-02 08:46:00,21.5,11.6,30.07,WSW,257,0.0,2.0,65,0.00,,---,0.00,VWS V14.01,2013-01-02 13:46:00,
2013-01-02 08:51:00,21.6,12.0,30.07,WNW,283,1.0,2.0,66,0.00,,---,0.00,VWS V14.01,2013-01-02 13:51:00,
2013-01-02 08:56:00,21.7,11.8,30.08,NW,315,2.0,4.0,65,0.00,,---,0.00,VWS V14.01,2013-01-02 13:56:00,
2013-01-02 09:00:00,21.9,11.6,30.08,WSW,242,2.0,9.0,64,0.00,,---,0.00,VWS V14.01,2013-01-02 14:00:00,
2013-01-02 09:01:00,21.9,11.2,30.08,WSW,238,3.0,4.0,63,0.00,,---,0.00,VWS V14.01,2013-01-02 14:01:00,
2013-01-02 09:06:00,22.0,11.4,30.08,WSW,255,0.0,5.0,63,0.00,,---,0.00,VWS V14.01,2013-01-02 14:06:00,
2013-01-02 09:11:00,22.2,11.9,30.08,West,264,0.0,5.0,64,0.00,,---,0.00,VWS V14.01,2013-01-02 14:11:00,
2013-01-02 09:16:00,22.4,11.4,30.08,WNW,284,2.0,7.0,62,0.00,,---,0.00,VWS V14.01,2013-01-02 14:16:00,
2013-01-02 09:21:00,22.4,11.4,30.08,WNW,291,1.0,7.0,62,0.00,,---,0.00,VWS V14.01,2013-01-02 14:21:00,
2013-01-02 09:26:00,22.6,11.2,30.08,SW,214,0.0,7.0,61,0.00,,---,0.00,VWS V14.01,2013-01-02 14:26:00,
2013-01-02 09:30:00,22.7,11.3,30.08,SSE,155,1.0,7.0,61,0.00,,---,0.00,VWS V14.01,2013-01-02 14:30:00,
2013-01-02 09:31:00,22.7,11.3,30.08,SW,224,0.0,2.0,61,0.00,,---,0.00,VWS V14.01,2013-01-02 14:31:00,
2013-01-02 09:36:00,22.8,11.4,30.08,WNW,301,2.0,3.0,61,0.00,,---,0.00,VWS V14.01,2013-01-02 14:36:00,
2013-01-02 09:41:00,22.9,11.1,30.08,WNW,285,1.0,4.0,60,0.00,,---,0.00,VWS V14.01,2013-01-02 14:41:00,
2013-01-02 09:46:00,23.1,11.7,30.09,West,270,0.0,4.0,61,0.00,,---,0.00,VWS V14.01,2013-01-02 14:46:00,
2013-01-02 09:51:00,23.3,11.5,30.09,WNW,285,0.0,6.0,60,0.00,,---,0.00,VWS V14.01,2013-01-02 14:51:00,
2013-01-02 09:56:00,23.5,11.7,30.09,West,263,4.0,8.0,60,0.00,,---,0.00,VWS V14.01,2013-01-02 14:56:00,
2013-01-02 10:00:00,23.6,11.8,30.09,West,269,4.0,8.0,60,0.00,,---,0.00,VWS V14.01,2013-01-02 15:00:00,
2013-01-02 10:01:00,23.6,11.8,30.09,West,280,2.0,4.0,60,0.00,,---,0.00,VWS V14.01,2013-01-02 15:01:00,
2013-01-02 10:06:00,23.8,12.0,30.08,East,94,0.0,4.0,60,0.00,,---,0.00,VWS V14.01,2013-01-02 15:06:00,
2013-01-02 10:11:00,24.1,12.2,30.08,WNW,295,2.0,5.0,60,0.00,,---,0.00,VWS V14.01,2013-01-02 15:11:00,
2013-01-02 10:16:00,24.2,11.6,30.09,West,280,6.0,10.0,58,0.00,,---,0.00,VWS V14.01,2013-01-02 15:16:00,
2013-01-02 10:21:00,24.2,11.9,30.09,WNW,300,4.0,10.0,59,0.00,,---,0.00,VWS V14.01,2013-01-02 15:21:00,
2013-01-02 10:26:00,24.4,12.5,30.08,NW,305,1.0,10.0,60,0.00,,---,0.00,VWS V14.01,2013-01-02 15:26:00,
2013-01-02 10:30:00,24.7,12.4,30.08,West,270,5.0,10.0,59,0.00,,---,0.00,VWS V14.01,2013-01-02 15:30:00,
2013-01-02 10:31:00,24.7,12.4,30.08,WNW,297,4.0,5.0,59,0.00,,---,0.00,VWS V14.01,2013-01-02 15:31:00,
2013-01-02 10:36:00,24.9,13.0,30.08,ENE,64,1.0,7.0,60,0.00,,---,0.00,VWS V14.01,2013-01-02 15:36:00,
2013-01-02 10:41:00,25.2,12.9,30.08,West,280,4.0,7.0,59,0.00,,---,0.00,VWS V14.01,2013-01-02 15:41:00,
2013-01-02 10:46:00,25.2,12.9,30.08,WSW,256,2.0,11.0,59,0.00,,---,0.00,VWS V14.01,2013-01-02 15:46:00,
2013-01-02 10:51:00,25.4,13.5,30.08,WSW,254,5.0,11.0,60,0.00,,---,0.00,VWS V14.01,2013-01-02 15:51:00,
2013-01-02 10:56:00,25.7,13.4,30.07,West,273,2.0,11.0,59,0.00,,---,0.00,VWS V14.01,2013-01-02 15:56:00,
2013-01-02 11:00:00,25.9,13.6,30.08,NNW,337,2.0,11.0,59,0.00,,---,0.00,VWS V14.01,2013-01-02 16:00:00,
2013-01-02 11:01:00,25.9,13.6,30.08,NE,41,4.0,7.0,59,0.00,,---,0.00,VWS V14.01,2013-01-02 16:01:00,
2013-01-02 11:06:00,26.2,14.2,30.07,WNW,291,7.0,11.0,60,0.00,,---,0.00,VWS V14.01,2013-01-02 16:06:00,
2013-01-02 11:11:00,26.5,14.1,30.07,NNE,18,2.0,11.0,59,0.00,,---,0.00,VWS V14.01,2013-01-02 16:11:00,
2013-01-02 11:16:00,26.9,14.5,30.07,WSW,240,6.0,11.0,59,0.00,,---,0.00,VWS V14.01,2013-01-02 16:16:00,
2013-01-02 11:21:00,27.0,14.2,30.07,West,262,1.0,11.0,58,0.00,,---,0.00,VWS V14.01,2013-01-02 16:21:00,
2013-01-02 11:26:00,27.1,14.3,30.07,SW,222,2.0,11.0,58,0.00,,---,0.00,VWS V14.01,2013-01-02 16:26:00,
2013-01-02 11:30:00,27.0,14.6,30.06,WNW,291,3.0,11.0,59,0.00,,---,0.00,VWS V14.01,2013-01-02 16:30:00,
2013-01-02 11:31:00,27.0,14.6,30.06,NW,323,4.0,6.0,59,0.00,,---,0.00,VWS V14.01,2013-01-02 16:31:00,
2013-01-02 11:36:00,27.2,14.0,30.06,NW,312,10.0,22.0,57,0.00,,---,0.00,VWS V14.01,2013-01-02 16:36:00,
2013-01-02 11:41:00,27.2,14.4,30.05,West,275,3.0,22.0,58,0.00,,---,0.00,VWS V14.01,2013-01-02 16:41:00,
2013-01-02 11:46:00,27.5,14.7,30.05,West,270,3.0,22.0,58,0.00,,---,0.00,VWS V14.01,2013-01-02 16:46:00,
2013-01-02 11:51:00,27.7,14.5,30.05,West,265,5.0,22.0,57,0.00,,---,0.00,VWS V14.01,2013-01-02 16:51:00,
2013-01-02 11:56:00,27.8,14.6,30.04,West,271,7.0,22.0,57,0.00,,---,0.00,VWS V14.01,2013-01-02 16:56:00,
2013-01-02 12:00:00,27.8,14.2,30.04,West,275,10.0,22.0,56,0.00,,---,0.00,VWS V14.01,2013-01-02 17:00:00,
2013-01-02 12:01:00,27.8,14.2,30.04,North,354,11.0,14.0,56,0.00,,---,0.00,VWS V14.01,2013-01-02 17:01:00,
2013-01-02 12:06:00,27.8,13.8,30.04,WNW,282,10.0,14.0,55,0.00,,---,0.00,VWS V14.01,2013-01-02 17:06:00,
2013-01-02 12:11:00,28.0,13.9,30.03,West,273,10.0,14.0,55,0.00,,---,0.00,VWS V14.01,2013-01-02 17:11:00,
2013-01-02 12:16:00,28.3,14.2,30.04,NW,317,11.0,14.0,55,0.00,,---,0.00,VWS V14.01,2013-01-02 17:16:00,
2013-01-02 12:21:00,28.3,14.2,30.04,NW,310,3.0,14.0,55,0.00,,---,0.00,VWS V14.01,2013-01-02 17:21:00,
2013-01-02 12:26:00,28.4,13.5,30.04,NNW,335,8.0,14.0,53,0.00,,---,0.00,VWS V14.01,2013-01-02 17:26:00,
2013-01-02 12:30:00,28.5,14.4,30.04,NW,323,4.0,14.0,55,0.00,,---,0.00,VWS V14.01,2013-01-02 17:30:00,
2013-01-02 12:31:00,28.5,14.4,30.04,West,271,6.0,6.0,55,0.00,,---,0.00,VWS V14.01,2013-01-02 17:31:00,
2013-01-02 12:36:00,28.8,14.7,30.04,WNW,289,4.0,11.0,55,0.00,,---,0.00,VWS V14.01,2013-01-02 17:36:00,
2013-01-02 12:41:00,29.1,15.0,30.03,SE,128,1.0,11.0,55,0.00,,---,0.00,VWS V14.01,2013-01-02 17:41:00,
2013-01-02 12:46:00,29.3,14.3,30.03,WNW,298,3.0,11.0,53,0.00,,---,0.00,VWS V14.01,2013-01-02 17:46:00,
2013-01-02 12:51:00,29.4,14.4,30.04,West,278,3.0,11.0,53,0.00,,---,0.00,VWS V14.01,2013-01-02 17:51:00,
2013-01-02 12:56:00,29.4,14.4,30.03,WSW,242,5.0,17.0,53,0.00,,---,0.00,VWS V14.01,2013-01-02 17:56:00,
2013-01-02 13:00:00,29.5,14.1,30.03,NW,311,4.0,17.0,52,0.00,,---,0.00,VWS V14.01,2013-01-02 18:00:00,
2013-01-02 13:01:00,29.5,14.1,30.03,WNW,282,2.0,4.0,52,0.00,,---,0.00,VWS V14.01,2013-01-02 18:01:00,
2013-01-02 13:06:00,29.7,14.2,30.03,West,274,3.0,6.0,52,0.00,,---,0.00,VWS V14.01,2013-01-02 18:06:00,
2013-01-02 13:11:00,30.0,14.5,30.04,NNE,20,3.0,7.0,52,0.00,,---,0.00,VWS V14.01,2013-01-02 18:11:00,
2013-01-02 13:16:00,29.9,14.0,30.03,NNE,28,3.0,10.0,51,0.00,,---,0.00,VWS V14.01,2013-01-02 18:16:00,
2013-01-02 13:21:00,30.0,14.1,30.04,NW,307,5.0,10.0,51,0.00,,---,0.00,VWS V14.01,2013-01-02 18:21:00,
2013-01-02 13:26:00,30.1,14.2,30.04,WNW,295,1.0,10.0,51,0.00,,---,0.00,VWS V14.01,2013-01-02 18:26:00,
2013-01-02 13:30:00,30.1,14.2,30.04,West,270,3.0,10.0,51,0.00,,---,0.00,VWS V14.01,2013-01-02 18:30:00,
2013-01-02 13:31:00,30.1,14.6,30.04,WSW,247,3.0,5.0,52,0.00,,---,0.00,VWS V14.01,2013-01-02 18:31:00,
2013-01-02 13:36:00,30.2,13.8,30.04,NW,305,5.0,12.0,50,0.00,,---,0.00,VWS V14.01,2013-01-02 18:36:00,
2013-01-02 13:41:00,30.2,14.7,30.04,NNE,22,1.0,12.0,52,0.00,,---,0.00,VWS V14.01,2013-01-02 18:41:00,
2013-01-02 13:46:00,30.2,14.3,30.04,WNW,292,6.0,12.0,51,0.00,,---,0.00,VWS V14.01,2013-01-02 18:46:00,
2013-01-02 13:51:00,30.2,13.8,30.05,West,275,6.0,12.0,50,0.00,,---,0.00,VWS V14.01,2013-01-02 18:51:00,
2013-01-02 13:56:00,30.2,14.7,30.05,West,262,3.0,12.0,52,0.00,,---,0.00,VWS V14.01,2013-01-02 18:56:00,
2013-01-02 14:00:00,30.1,13.7,30.05,West,264,5.0,12.0,50,0.00,,---,0.00,VWS V14.01,2013-01-02 19:00:00,
2013-01-02 14:01:00,30.1,13.7,30.04,West,266,7.0,8.0,50,0.00,,---,0.00,VWS V14.01,2013-01-02 19:01:00,
2013-01-02 14:06:00,30.2,14.3,30.06,ENE,58,2.0,10.0,51,0.00,,---,0.00,VWS V14.01,2013-01-02 19:06:00,
2013-01-02 14:11:00,30.4,14.0,30.06,NE,37,2.0,10.0,50,0.00,,---,0.00,VWS V14.01,2013-01-02 19:11:00,
2013-01-02 14:16:00,30.3,13.9,30.05,WNW,294,6.0,12.0,50,0.00,,---,0.00,VWS V14.01,2013-01-02 19:16:00,
2013-01-02 14:21:00,30.2,14.3,30.05,West,272,2.0,12.0,51,0.00,,---,0.00,VWS V14.01,2013-01-02 19:21:00,
2013-01-02 14:26:00,30.2,13.4,30.06,West,259,5.0,12.0,49,0.00,,---,0.00,VWS V14.01,2013-01-02 19:26:00,
2013-01-02 14:30:00,30.1,13.7,30.06,West,274,5.0,12.0,50,0.00,,---,0.00,VWS V14.01,2013-01-02 19:30:00,
2013-01-02 14:31:00,30.1,13.7,30.05,West,277,3.0,5.0,50,0.00,,---,0.00,VWS V14.01,2013-01-02 19:31:00,
2013-01-02 14:36:00,30.1,14.6,30.06,WNW,282,1.0,10.0,52,0.00,,---,0.00,VWS V14.01,2013-01-02 19:36:00,
2013-01-02 14:41:00,30.2,13.8,30.07,NW,317,1.0,10.0,50,0.00,,---,0.00,VWS V14.01,2013-01-02 19:41:00,
2013-01-02 14:46:00,30.3,13.9,30.07,West,278,4.0,14.0,50,0.00,,---,0.00,VWS V14.01,2013-01-02 19:46:00,
2013-01-02 14:51:00,30.2,14.3,30.07,West,276,7.0,14.0,51,0.00,,---,0.00,VWS V14.01,2013-01-02 19:51:00,
2013-01-02 14:56:00,30.2,14.3,30.06,West,267,4.0,14.0,51,0.00,,---,0.00,VWS V14.01,2013-01-02 19:56:00,
2013-01-02 15:00:00,30.3,13.9,30.07,NW,319,3.0,14.0,50,0.00,,---,0.00,VWS V14.01,2013-01-02 20:00:00,
2013-01-02 15:01:00,30.3,13.9,30.07,West,269,3.0,4.0,50,0.00,,---,0.00,VWS V14.01,2013-01-02 20:01:00,
2013-01-02 15:06:00,30.4,14.4,30.07,West,263,3.0,6.0,51,0.00,,---,0.00,VWS V14.01,2013-01-02 20:06:00,
2013-01-02 15:11:00,30.4,14.4,30.06,NNW,335,2.0,7.0,51,0.00,,---,0.00,VWS V14.01,2013-01-02 20:11:00,
2013-01-02 15:16:00,30.4,14.4,30.07,WSW,247,6.0,7.0,51,0.00,,---,0.00,VWS V14.01,2013-01-02 20:16:00,
2013-01-02 15:21:00,30.4,14.4,30.07,North,11,8.0,9.0,51,0.00,,---,0.00,VWS V14.01,2013-01-02 20:21:00,
2013-01-02 15:26:00,30.4,14.4,30.07,North,6,2.0,10.0,51,0.00,,---,0.00,VWS V14.01,2013-01-02 20:26:00,
2013-01-02 15:30:00,30.3,14.8,30.07,WNW,285,7.0,11.0,52,0.00,,---,0.00,VWS V14.01,2013-01-02 20:30:00,
2013-01-02 15:31:00,30.3,14.8,30.08,NW,304,8.0,8.0,52,0.00,,---,0.00,VWS V14.01,2013-01-02 20:31:00,
2013-01-02 15:36:00,30.2,14.7,30.08,WSW,253,4.0,11.0,52,0.00,,---,0.00,VWS V14.01,2013-01-02 20:36:00,
2013-01-02 15:41:00,30.2,15.1,30.07,West,267,5.0,11.0,53,0.00,,---,0.00,VWS V14.01,2013-01-02 20:41:00,
2013-01-02 15:46:00,30.2,15.1,30.08,WSW,249,0.0,11.0,53,0.00,,---,0.00,VWS V14.01,2013-01-02 20:46:00,
2013-01-02 15:51:00,30.1,14.6,30.08,NNW,340,1.0,11.0,52,0.00,,---,0.00,VWS V14.01,2013-01-02 20:51:00,
2013-01-02 15:56:00,30.1,15.1,30.08,WSW,250,4.0,11.0,53,0.00,,---,0.00,VWS V14.01,2013-01-02 20:56:00,
2013-01-02 16:00:00,30.1,14.6,30.08,NW,305,3.0,11.0,52,0.00,,---,0.00,VWS V14.01,2013-01-02 21:00:00,
2013-01-02 16:01:00,30.1,14.6,30.08,NW,317,2.0,3.0,52,0.00,,---,0.00,VWS V14.01,2013-01-02 21:01:00,
2013-01-02 16:06:00,30.0,15.4,30.09,WNW,300,4.0,4.0,54,0.00,,---,0.00,VWS V14.01,2013-01-02 21:06:00,
2013-01-02 16:11:00,30.0,15.0,30.08,West,263,3.0,5.0,53,0.00,,---,0.00,VWS V14.01,2013-01-02 21:11:00,
2013-01-02 16:16:00,29.9,14.9,30.08,NW,326,2.0,5.0,53,0.00,,---,0.00,VWS V14.01,2013-01-02 21:16:00,
2013-01-02 16:21:00,29.9,15.7,30.08,NW,315,2.0,5.0,55,0.00,,---,0.00,VWS V14.01,2013-01-02 21:21:00,
2013-01-02 16:26:00,29.9,15.3,30.08,West,281,4.0,7.0,54,0.00,,---,0.00,VWS V14.01,2013-01-02 21:26:00,
2013-01-02 16:30:00,29.8,16.0,30.08,WSW,246,1.0,7.0,56,0.00,,---,0.00,VWS V14.01,2013-01-02 21:30:00,
2013-01-02 16:31:00,29.7,15.9,30.09,West,264,4.0,5.0,56,0.00,,---,0.00,VWS V14.01,2013-01-02 21:31:00,
2013-01-02 16:36:00,29.7,15.1,30.09,West,264,5.0,7.0,54,0.00,,---,0.00,VWS V14.01,2013-01-02 21:36:00,
2013-01-02 16:41:00,29.7,15.1,30.09,West,270,5.0,9.0,54,0.00,,---,0.00,VWS V14.01,2013-01-02 21:41:00,
2013-01-02 16:46:00,29.6,15.4,30.09,NW,312,1.0,9.0,55,0.00,,---,0.00,VWS V14.01,2013-01-02 21:46:00,
2013-01-02 16:51:00,29.5,15.3,30.09,SW,219,2.0,9.0,55,0.00,,---,0.00,VWS V14.01,2013-01-02 21:51:00,
2013-01-02 16:56:00,29.5,15.8,30.09,NW,325,1.0,9.0,56,0.00,,---,0.00,VWS V14.01,2013-01-02 21:56:00,
2013-01-02 17:00:00,29.3,15.1,30.10,West,271,1.0,9.0,55,0.00,,---,0.00,VWS V14.01,2013-01-02 22:00:00,
2013-01-02 17:01:00,29.4,15.2,30.10,WSW,252,1.0,2.0,55,0.00,,---,0.00,VWS V14.01,2013-01-02 22:01:00,
2013-01-02 17:06:00,29.3,15.1,30.10,WNW,295,2.0,7.0,55,0.00,,---,0.00,VWS V14.01,2013-01-02 22:06:00,
2013-01-02 17:11:00,29.2,15.5,30.11,SW,226,1.0,7.0,56,0.00,,---,0.00,VWS V14.01,2013-01-02 22:11:00,
2013-01-02 17:16:00,29.2,15.1,30.11,SSW,208,3.0,7.0,55,0.00,,---,0.00,VWS V14.01,2013-01-02 22:16:00,
2013-01-02 17:21:00,29.2,15.1,30.11,WNW,291,1.0,8.0,55,0.00,,---,0.00,VWS V14.01,2013-01-02 22:21:00,
2013-01-02 17:26:00,29.2,15.5,30.11,SSE,154,0.0,8.0,56,0.00,,---,0.00,VWS V14.01,2013-01-02 22:26:00,
2013-01-02 17:30:00,29.2,15.5,30.12,WNW,285,4.0,8.0,56,0.00,,---,0.00,VWS V14.01,2013-01-02 22:30:00,
2013-01-02 17:31:00,29.2,15.1,30.11,West,273,1.0,4.0,55,0.00,,---,0.00,VWS V14.01,2013-01-02 22:31:00,
2013-01-02 17:36:00,29.1,15.4,30.12,WNW,287,0.0,4.0,56,0.00,,---,0.00,VWS V14.01,2013-01-02 22:36:00,
2013-01-02 17:41:00,29.0,15.3,30.11,WNW,287,0.0,4.0,56,0.00,,---,0.00,VWS V14.01,2013-01-02 22:41:00,
2013-01-02 17:46:00,28.8,15.9,30.12,WNW,287,0.0,4.0,58,0.00,,---,0.00,VWS V14.01,2013-01-02 22:46:00,
2013-01-02 17:51:00,28.8,15.9,30.12,West,280,2.0,4.0,58,0.00,,---,0.00,VWS V14.01,2013-01-02 22:51:00,
2013-01-02 17:56:00,28.8,15.5,30.12,WNW,293,1.0,4.0,57,0.00,,---,0.00,VWS V14.01,2013-01-02 22:56:00,
2013-01-02 18:00:00,28.9,15.2,30.12,West,271,2.0,4.0,56,0.00,,---,0.00,VWS V14.01,2013-01-02 23:00:00,
2013-01-02 18:01:00,28.9,15.2,30.12,West,281,1.0,3.0,56,0.00,,---,0.00,VWS V14.01,2013-01-02 23:01:00,
2013-01-02 18:06:00,29.0,15.7,30.12,West,280,0.0,4.0,57,0.00,,---,0.00,VWS V14.01,2013-01-02 23:06:00,
2013-01-02 18:11:00,28.9,16.0,30.13,West,278,3.0,4.0,58,0.00,,---,0.00,VWS V14.01,2013-01-02 23:11:00,
2013-01-02 18:16:00,28.8,15.5,30.13,WNW,289,3.0,4.0,57,0.00,,---,0.00,VWS V14.01,2013-01-02 23:16:00,
2013-01-02 18:21:00,28.9,16.0,30.13,WNW,282,0.0,5.0,58,0.00,,---,0.00,VWS V14.01,2013-01-02 23:21:00,
2013-01-02 18:26:00,28.9,15.6,30.14,NW,317,2.0,5.0,57,0.00,,---,0.00,VWS V14.01,2013-01-02 23:26:00,
2013-01-02 18:30:00,28.8,15.5,30.13,West,278,0.0,5.0,57,0.00,,---,0.00,VWS V14.01,2013-01-02 23:30:00,
2013-01-02 18:31:00,28.8,15.9,30.13,West,278,0.0,0.0,58,0.00,,---,0.00,VWS V14.01,2013-01-02 23:31:00,
2013-01-02 18:36:00,28.7,16.2,30.14,West,277,1.0,2.0,59,0.00,,---,0.00,VWS V14.01,2013-01-02 23:36:00,
2013-01-02 18:41:00,28.7,15.4,30.14,WNW,302,2.0,4.0,57,0.00,,---,0.00,VWS V14.01,2013-01-02 23:41:00,
2013-01-02 18:46:00,28.8,15.5,30.14,NW,309,5.0,9.0,57,0.00,,---,0.00,VWS V14.01,2013-01-02 23:46:00,
2013-01-02 18:51:00,28.8,15.9,30.14,West,271,5.0,9.0,58,0.00,,---,0.00,VWS V14.01,2013-01-02 23:51:00,
2013-01-02 18:56:00,28.8,15.9,30.14,NW,317,1.0,9.0,58,0.00,,---,0.00,VWS V14.01,2013-01-02 23:56:00,
2013-01-02 19:00:00,28.7,15.8,30.14,NW,309,1.0,9.0,58,0.00,,---,0.00,VWS V14.01,2013-01-03 00:00:00,
2013-01-02 19:01:00,28.7,15.8,30.14,WNW,303,2.0,2.0,58,0.00,,---,0.00,VWS V14.01,2013-01-03 00:01:00,
2013-01-02 19:06:00,28.7,15.8,30.14,West,276,2.0,3.0,58,0.00,,---,0.00,VWS V14.01,2013-01-03 00:06:00,
2013-01-02 19:11:00,28.6,16.1,30.14,SSW,203,1.0,4.0,59,0.00,,---,0.00,VWS V14.01,2013-01-03 00:11:00,
2013-01-02 19:16:00,28.6,16.1,30.14,West,266,0.0,6.0,59,0.00,,---,0.00,VWS V14.01,2013-01-03 00:16:00,
2013-01-02 19:21:00,28.6,16.1,30.14,West,270,2.0,6.0,59,0.00,,---,0.00,VWS V14.01,2013-01-03 00:21:00,
2013-01-02 19:26:00,28.5,16.0,30.14,WNW,295,2.0,6.0,59,0.00,,---,0.00,VWS V14.01,2013-01-03 00:26:00,
2013-01-02 19:30:00,28.5,16.0,30.14,West,263,0.0,6.0,59,0.00,,---,0.00,VWS V14.01,2013-01-03 00:30:00,
2013-01-02 19:31:00,28.5,16.0,30.14,West,262,0.0,1.0,59,0.00,,---,0.00,VWS V14.01,2013-01-03 00:31:00,
2013-01-02 19:36:00,28.4,15.9,30.14,SE,141,1.0,1.0,59,0.00,,---,0.00,VWS V14.01,2013-01-03 00:36:00,
2013-01-02 19:41:00,28.3,16.2,30.14,WSW,242,0.0,2.0,60,0.00,,---,0.00,VWS V14.01,2013-01-03 00:41:00,
2013-01-02 19:46:00,28.3,16.6,30.14,West,278,0.0,2.0,61,0.00,,---,0.00,VWS V14.01,2013-01-03 00:46:00,
2013-01-02 19:51:00,28.2,16.5,30.14,WNW,298,6.0,6.0,61,0.00,,---,0.00,VWS V14.01,2013-01-03 00:51:00,
2013-01-02 19:56:00,28.2,16.5,30.13,WNW,293,0.0,6.0,61,0.00,,---,0.00,VWS V14.01,2013-01-03 00:56:00,
2013-01-02 20:00:00,28.2,16.5,30.13,SW,228,4.0,6.0,61,0.00,,---,0.00,VWS V14.01,2013-01-03 01:00:00,
2013-01-02 20:01:00,28.2,16.5,30.14,West,270,3.0,4.0,61,0.00,,---,0.00,VWS V14.01,2013-01-03 01:01:00,
2013-01-02 20:06:00,28.3,16.6,30.14,WNW,283,1.0,7.0,61,0.00,,---,0.00,VWS V14.01,2013-01-03 01:06:00,
2013-01-02 20:11:00,28.2,16.5,30.13,WNW,284,0.0,7.0,61,0.00,,---,0.00,VWS V14.01,2013-01-03 01:11:00,
2013-01-02 20:16:00,28.2,16.5,30.13,WNW,293,0.0,7.0,61,0.00,,---,0.00,VWS V14.01,2013-01-03 01:16:00,
2013-01-02 20:21:00,28.1,16.8,30.13,West,262,1.0,7.0,62,0.00,,---,0.00,VWS V14.01,2013-01-03 01:21:00,
2013-01-02 20:26:00,28.1,16.8,30.14,West,281,1.0,7.0,62,0.00,,---,0.00,VWS V14.01,2013-01-03 01:26:00,
2013-01-02 20:30:00,28.0,16.7,30.14,NW,312,0.0,7.0,62,0.00,,---,0.00,VWS V14.01,2013-01-03 01:30:00,
2013-01-02 20:31:00,28.0,16.7,30.14,WNW,291,0.0,0.0,62,0.00,,---,0.00,VWS V14.01,2013-01-03 01:31:00,
2013-01-02 20:36:00,27.9,17.0,30.14,WNW,282,1.0,2.0,63,0.00,,---,0.00,VWS V14.01,2013-01-03 01:36:00,
2013-01-02 20:41:00,27.8,16.9,30.15,SSE,159,0.0,2.0,63,0.00,,---,0.00,VWS V14.01,2013-01-03 01:41:00,
2013-01-02 20:46:00,27.7,17.1,30.15,NW,305,3.0,5.0,64,0.00,,---,0.00,VWS V14.01,2013-01-03 01:46:00,
2013-01-02 20:51:00,27.8,17.2,30.15,NW,307,2.0,5.0,64,0.00,,---,0.00,VWS V14.01,2013-01-03 01:51:00,
2013-01-02 20:56:00,27.8,17.2,30.15,NNW,333,0.0,5.0,64,0.00,,---,0.00,VWS V14.01,2013-01-03 01:56:00,
2013-01-02 21:00:00,27.7,17.1,30.15,SE,141,0.0,5.0,64,0.00,,---,0.00,VWS V14.01,2013-01-03 02:00:00,
2013-01-02 21:01:00,27.7,17.1,30.15,South,169,1.0,1.0,64,0.00,,---,0.00,VWS V14.01,2013-01-03 02:01:00,
2013-01-02 21:06:00,27.5,17.3,30.15,SSE,150,1.0,2.0,65,0.00,,---,0.00,VWS V14.01,2013-01-03 02:06:00,
2013-01-02 21:11:00,27.4,17.2,30.15,WNW,291,1.0,2.0,65,0.00,,---,0.00,VWS V14.01,2013-01-03 02:11:00,
2013-01-02 21:16:00,27.5,17.6,30.15,West,272,1.0,3.0,66,0.00,,---,0.00,VWS V14.01,2013-01-03 02:16:00,
2013-01-02 21:21:00,27.5,17.6,30.16,NW,314,1.0,3.0,66,0.00,,---,0.00,VWS V14.01,2013-01-03 02:21:00,
2013-01-02 21:26:00,27.4,17.5,30.16,WNW,295,1.0,3.0,66,0.00,,---,0.00,VWS V14.01,2013-01-03 02:26:00,
2013-01-02 21:30:00,27.3,17.5,30.16,WSW,240,0.0,3.0,66,0.00,,---,0.00,VWS V14.01,2013-01-03 02:30:00,
2013-01-02 21:31:00,27.4,17.5,30.16,WSW,240,0.0,0.0,66,0.00,,---,0.00,VWS V14.01,2013-01-03 02:31:00,
2013-01-02 21:36:00,27.4,17.5,30.16,West,280,0.0,3.0,66,0.00,,---,0.00,VWS V14.01,2013-01-03 02:36:00,
2013-01-02 21:41:00,27.2,17.4,30.16,SSE,153,0.0,3.0,66,0.00,,---,0.00,VWS V14.01,2013-01-03 02:41:00,
2013-01-02 21:46:00,27.1,17.6,30.16,WSW,256,0.0,3.0,67,0.00,,---,0.00,VWS V14.01,2013-01-03 02:46:00,
2013-01-02 21:51:00,27.0,17.5,30.16,West,262,0.0,3.0,67,0.00,,---,0.00,VWS V14.01,2013-01-03 02:51:00,
2013-01-02 21:56:00,26.9,17.8,30.17,SSE,150,0.0,3.0,68,0.00,,---,0.00,VWS V14.01,2013-01-03 02:56:00,
2013-01-02 22:00:00,26.7,17.6,30.16,SSE,150,0.0,3.0,68,0.00,,---,0.00,VWS V14.01,2013-01-03 03:00:00,
2013-01-02 22:01:00,26.6,17.5,30.16,SE,145,2.0,2.0,68,0.00,,---,0.00,VWS V14.01,2013-01-03 03:01:00,
2013-01-02 22:06:00,26.6,17.5,30.17,SSE,159,0.0,2.0,68,0.00,,---,0.00,VWS V14.01,2013-01-03 03:06:00,
2013-01-02 22:11:00,26.3,17.2,30.17,SSE,159,0.0,2.0,68,0.00,,---,0.00,VWS V14.01,2013-01-03 03:11:00,
2013-01-02 22:16:00,26.2,17.4,30.17,SSE,149,1.0,2.0,69,0.00,,---,0.00,VWS V14.01,2013-01-03 03:16:00,
2013-01-02 22:21:00,26.0,17.2,30.17,SSE,156,0.0,2.0,69,0.00,,---,0.00,VWS V14.01,2013-01-03 03:21:00,
2013-01-02 22:26:00,26.0,17.6,30.18,SSE,156,0.0,2.0,70,0.00,,---,0.00,VWS V14.01,2013-01-03 03:26:00,
2013-01-02 22:30:00,26.0,17.2,30.18,SSE,158,0.0,2.0,69,0.00,,---,0.00,VWS V14.01,2013-01-03 03:30:00,
2013-01-02 22:31:00,26.0,17.2,30.18,SSE,158,0.0,0.0,69,0.00,,---,0.00,VWS V14.01,2013-01-03 03:31:00,
2013-01-02 22:36:00,25.9,17.5,30.18,SSE,158,0.0,0.0,70,0.00,,---,0.00,VWS V14.01,2013-01-03 03:36:00,
2013-01-02 22:41:00,25.8,17.4,30.18,SSE,158,0.0,0.0,70,0.00,,---,0.00,VWS V14.01,2013-01-03 03:41:00,
2013-01-02 22:46:00,25.7,17.3,30.18,SSE,156,0.0,0.0,70,0.00,,---,0.00,VWS V14.01,2013-01-03 03:46:00,
2013-01-02 22:51:00,25.5,17.4,30.18,SSE,156,0.0,0.0,71,0.00,,---,0.00,VWS V14.01,2013-01-03 03:51:00,
2013-01-02 22:56:00,25.5,17.8,30.19,SSE,156,1.0,1.0,72,0.00,,---,0.00,VWS V14.01,2013-01-03 03:56:00,
2013-01-02 23:00:00,25.7,17.9,30.18,WSW,250,0.0,1.0,72,0.00,,---,0.00,VWS V14.01,2013-01-03 04:00:00,
2013-01-02 23:01:00,25.7,17.9,30.19,SE,127,1.0,1.0,72,0.00,,---,0.00,VWS V14.01,2013-01-03 04:01:00,
2013-01-02 23:06:00,26.0,17.9,30.18,SE,139,0.0,3.0,71,0.00,,---,0.00,VWS V14.01,2013-01-03 04:06:00,
2013-01-02 23:11:00,26.0,18.2,30.19,SE,143,0.0,3.0,72,0.00,,---,0.00,VWS V14.01,2013-01-03 04:11:00,
2013-01-02 23:16:00,25.9,17.8,30.19,ESE,118,0.0,3.0,71,0.00,,---,0.00,VWS V14.01,2013-01-03 04:16:00,
2013-01-02 23:21:00,25.9,18.1,30.19,West,259,0.0,3.0,72,0.00,,---,0.00,VWS V14.01,2013-01-03 04:21:00,
2013-01-02 23:26:00,25.9,17.8,30.18,SSE,155,2.0,3.0,71,0.00,,---,0.00,VWS V14.01,2013-01-03 04:26:00,
2013-01-02 23:30:00,26.0,17.9,30.18,South,172,1.0,3.0,71,0.00,,---,0.00,VWS V14.01,2013-01-03 04:30:00,
2013-01-02 23:31:00,26.0,17.9,30.18,South,172,0.0,1.0,71,0.00,,---,0.00,VWS V14.01,2013-01-03 04:31:00,
2013-01-02 23:36:00,26.0,17.9,30.19,SE,136,0.0,1.0,71,0.00,,---,0.00,VWS V14.01,2013-01-03 04:36:00,
2013-01-02 23:41:00,25.9,17.8,30.19,SW,222,0.0,2.0,71,0.00,,---,0.00,VWS V14.01,2013-01-03 04:41:00,
2013-01-02 23:46:00,25.9,18.1,30.19,SE,138,1.0,2.0,72,0.00,,---,0.00,VWS V14.01,2013-01-03 04:46:00,
2013-01-02 23:51:00,25.8,18.0,30.19,SSE,155,1.0,2.0,72,0.00,,---,0.00,VWS V14.01,2013-01-03 04:51:00,
2013-01-02 23:56:00,25.7,18.3,30.20,SSE,152,0.0,2.0,73,0.00,,---,0.00,VWS V14.01,2013-01-03 04:56:00,